Regional Weather Roundup
Issued by NWS

Home | Current Version | Previous Version | Text Only | Print | Product List | Glossary Off
Versions: 1 2 3 4 5 6 7 8 9 10 11 12 13 14 15 16 17 18 19 20 21 22 23 24 25 26 27 28 29 30 31 32 33 34 35 36 37 38 39 40 41 42 43 44 45 46 47 48 49 50

000
ASUS43 KMPX 182310
RWRMN
WEATHER ROUNDUP FOR MINNESOTA
NATIONAL WEATHER SERVICE TWIN CITIES/CHANHASSEN MN
500 PM CST THU DEC 18 2014


NOTE: "FAIR" INDICATES FEW OR NO CLOUDS BELOW 12,000 FEET WITH NO
SIGNIFICANT WEATHER AND/OR OBSTRUCTIONS TO VISIBILITY. N/A MEANS
CURRENT SKY AND/OR WEATHER CONDITIONS ARE NOT AVAILABLE.

MNZ060>063-068>070-190000-
   Twin Cities Metro

CITY           SKY/WX    TMP DP  RH WIND       PRES   REMARKS
TWIN CITIES    CLOUDY    20  15  81 E7        30.27S WCI  11
ST PAUL        CLOUDY    21  16  81 S3        30.29S
CRYSTAL        CLOUDY    23  15  71 E6        30.26S WCI  16
BLAINE           N/A     23  19  86 SE3       30.27R
LAKEVILLE      CLOUDY    19  16  86 E3        30.26S
EDEN PRAIRIE   CLOUDY    21  14  74 SE6       30.25S WCI  13
SOUTH ST PAUL  CLOUDY    22  16  76 CALM      30.28S
LAKE ELMO      CLOUDY    23  19  86 CALM      30.27S
$$
MNZ001>005-007-008-013>017-022>024-027-028-190000-
   Northwest Minnesota

CITY           SKY/WX    TMP DP  RH WIND       PRES   REMARKS
BEMIDJI        CLOUDY    17  13  84 SE8       30.19S WCI   7
HALLOCK        CLOUDY    19  16  86 S13       30.17F WCI   7
ROSEAU         PTCLDY    18  10  73 S7        30.19F WCI   8
WARROAD        CLEAR     18  12  79 SE8       30.20S WCI   7
THIEF RVR FALL CLOUDY    19  14  79 SE10      30.18S WCI   8
CROOKSTON      CLOUDY    19  16  86 S9        30.20R WCI   9
FOSSTON        CLOUDY    18  16  93 SE6       30.18S WCI   9
DETROIT LAKES  MOCLDY    19  18  93 SE8       30.19R WCI   9
MOORHEAD       CLOUDY    19  18  93 S12       30.20S WCI   7
PARK RAPIDS    MOCLDY    18  12  77 SE9       30.19S WCI   7
MAHNOMEN       CLOUDY    19  13  78 SE5       30.17S WCI  12
$$
MNZ006-009>011-018-025>026-190000-
   North Central Minnesota

CITY           SKY/WX    TMP DP  RH WIND       PRES   REMARKS
BAUDETTE       CLOUDY    18  12  77 S7        30.21S WCI   9
FLAG ISLAND    PTCLDY    16  12  86 S13       30.19S WCI   2
INTL FALLS     CLOUDY    20  15  81 SE5       30.23S WCI  13
WASKISH        CLOUDY    19  16  86 CALM      30.21F
BIG FORK       CLOUDY    21  18  86 S8        30.22S WCI  12
LONGVILLE      CLOUDY    19  16  86 S3        30.23R
GRAND RAPIDS   CLOUDY    19  18  93 SE7       30.21S WCI  10
CRANE LAKE     CLOUDY    19  18  93 CALM      30.26S
ORR            CLOUDY    19  16  86 CALM      30.20S
COOK           CLOUDY    19  18  93 CALM      30.22F
WALKER         CLOUDY    17  13  84 SE5       30.21S WCI  10
$$
MNZ012-019>021-037-190000-
   Northeast Minnesota

CITY           SKY/WX    TMP DP  RH WIND       PRES   REMARKS
DULUTH         CLOUDY    24  16  71 E6        30.22R WCI  17
ELY            CLOUDY    23  19  86 CALM      30.23S
HIBBING        CLOUDY    23  17  78 CALM      30.22S
EVELETH        CLOUDY    23  21  93 CALM      30.23S
DULUTH HARBOR  CLOUDY    28  21  74 CALM      30.28S
TWO HARBORS    CLOUDY    28  21  74 SE2       30.23R
SILVER BAY     CLOUDY    27  23  86 NE3       30.23S
GRAND MARAIS     N/A     18  13  80 N5        30.30S WCI  11
G MARAIS ARPRT PTCLDY    12   9  85 CALM      30.23S
$$
MNZ029>031-032-039>041-046>048-054>057-064-190000-
   West Central Minnesota

CITY           SKY/WX    TMP DP  RH WIND       PRES   REMARKS
FERGUS FALLS   CLOUDY    19  12  73 SE9       30.23S WCI   9
WHEATON        CLOUDY    18  16  93 SE10      30.22S WCI   6
MORRIS         CLOUDY    19  16  86 SE12      30.20S WCI   7
ALEXANDRIA     CLOUDY    19  12  74 SE8       30.21R WCI   9
ELBOW LAKE     CLOUDY    18  14  85 SE10      30.19S WCI   6
WADENA         CLOUDY    18  12  79 NW8       30.20S WCI   7
GLENWOOD       CLOUDY    19  16  86 SE5       30.21S WCI  13
APPLETON       CLOUDY    21  18  86 SE6       30.21S WCI  14
BENSON         CLOUDY    19  16  86 SE7       30.22S WCI  10
ORTONVILLE     CLOUDY    19  16  86 SE9       30.19S WCI   9
MADISON        CLEAR     25  21  86 SE6       30.21S WCI  18
WILLMAR        CLOUDY    21  16  79 SE6       30.24R WCI  14
$$
MNZ033>034-036-042>043-049>051-058-059-190000-
   Central Minnesota

CITY           SKY/WX    TMP DP  RH WIND       PRES   REMARKS
ST CLOUD       CLOUDY    21  14  74 E3        30.25S
SAUK CENTRE    CLOUDY    19  13  79 SE6       30.23R WCI  10
PAYNESVILLE    PTCLDY    16  12  86 CALM      30.24R
AITKIN         CLOUDY    23  18  80 S5        30.22S WCI  17
PINE RIVER     CLOUDY    19  16  86 SE6       30.25S WCI  11
BRAINERD       CLOUDY    19  15  84 S5        30.24S WCI  12
STAPLES        CLOUDY    18  12  79 SE3       30.21S
LONG PRAIRIE   CLOUDY    19  12  73 SE6       30.22S WCI  11
LITTLE FALLS   CLOUDY    19  14  79 SE3       30.24S
LITCHFIELD     CLEAR     18  16  93 SE3       30.24S
BUFFALO        MOCLDY    20  15  78 CALM      30.27S
MAPLE LAKE     MOCLDY    21  17  83 CALM      30.26S
$$
MNZ037-044-045-052-053-190000-
   East Central Minnesota

CITY           SKY/WX    TMP DP  RH WIND       PRES   REMARKS
PRINCETON      CLOUDY    21  18  86 CALM      30.25S
MORA           CLOUDY    19  16  86 CALM      30.27S
CAMBRIDGE      FLURRIES  23  16  74 CALM      30.25S
RUSH CITY      CLOUDY    21  18  86 CALM      30.27S
MOOSE LAKE     CLOUDY    23  19  86 SW3       30.23S
HINCKLEY       CLOUDY    23  19  86 CALM      30.26S
CLOQUET        CLOUDY    25  18  74 CALM      30.23R
MCGREGOR       CLOUDY    23  21  93 S3        30.24S
$$
MNZ071>073-080-081-089-090-097-098-190000-
   Southwest Minnesota

CITY           SKY/WX    TMP DP  RH WIND       PRES   REMARKS
MONTEVIDEO     CLOUDY    19  18  93 SE6       30.23S WCI  11
GRANITE FALLS  CLOUDY    21  17  86 E6        30.24R WCI  13
CANBY          CLOUDY    23  21  93 SE7       30.20S WCI  15
MARSHALL       MOCLDY    21  18  86 SE6       30.20S WCI  14
REDWOOD FALLS  CLOUDY    22  16  78 SE6       30.23S WCI  14
OLIVIA         CLOUDY    21  18  86 SE6       30.23R WCI  14
PIPESTONE      MOCLDY    25  21  86 CALM      30.16S FOG
WINDOM         CLOUDY    23  19  86 CALM      30.20S
WORTHINGTON    CLOUDY    25  19  80 S5        30.19R WCI  19
JACKSON        CLOUDY    27  19  74 SE5       30.21R WCI  21
TRACY          CLOUDY    25  22  88 SE3       30.20S
SLAYTON        CLOUDY    25  23  91 CALM      30.18R
$$
MNZ065>067-074>077-082>085-091>093-190000-
   South Central Minnesota

CITY           SKY/WX    TMP DP  RH WIND       PRES   REMARKS
MANKATO        CLOUDY    21  14  73 E5        30.25R WCI  15
NEW ULM        CLOUDY    21  18  86 SE3       30.24S
ST JAMES       CLOUDY    25  18  74 SE5       30.25R WCI  19
FAIRMONT       CLOUDY    23  16  74 SE3       30.22S
GLENCOE        MOCLDY    20  17  85 E3        30.25R
FARIBAULT      CLOUDY    21  16  79 E3        30.25S
OWATONNA       MOCLDY    21  16  79 CALM      30.24S
WASECA         CLOUDY    21  16  79 NE5       30.25S WCI  15
ALBERT LEA     CLOUDY    21  18  86 CALM      30.23R
$$
MNZ078>079-086>088-094>096-190000-
   Southeast Minnesota

CITY           SKY/WX    TMP DP  RH WIND       PRES   REMARKS
ROCHESTER      CLOUDY    21  15  78 S3        30.24S
RED WING       CLOUDY    25  18  74 CALM      30.27R
STANTON        CLOUDY    23  16  75 S3        30.25S
DODGE CENTER   CLOUDY    19  16  86 CALM      30.24R
WINONA         CLOUDY    27  19  74 NE3       30.28S
AUSTIN         CLOUDY    19  16  86 CALM      30.24R
PRESTON        CLOUDY    21  16  79 CALM      30.24R
$$
ABBREVIATIONS USED IN REMARKS
   TC - TEMPERATURES IN CELSIUS
  WCI - WIND CHILL INDEX
   HX - HEAT INDEX
  VSB - VISIBILITY
$$



USA.gov is the U.S. government's official web portal to all federal, state and local government web resources and services.